User: anonymous   Login
Location: Unspecified
(0.0000°N, 0.0000°E)
Time: 05:49:51
(UTC+00:00)
Language:

OBJECT F - Orbit

View from above orbital plane
View from above orbital plane
View from above satellite
View from above satellite

Ground track
Ground track

The orbit is defined by the following mean orbital elements,

1 66298U          26145.58723727 +.00000000 +00000-0 +13436-3 0 00003
2 66298  45.3812 241.0659 0014054 265.1156  94.8125 15.20742084    05
Epoch (UTC): 25 May 2026 14:05:37
Eccentricity: 0.0014054
inclination: 45.3812°
perigee height: 494 km
apogee height: 513 km
right ascension of ascending node: 241.0659°
argument of perigee: 265.1156°
revolutions per day: 15.20742084
mean anomaly at epoch: 94.8125°

The dashed part of the orbit path shows where the satellite is in the earth's shadow,  

DLR